Regional Weather Roundup
Issued by NWS

Home | Current Version | Previous Version | Graphics & Text | Print | Product List | Glossary On
Versions: 1 2 3 4 5 6 7 8 9 10 11 12 13 14 15 16 17 18 19 20 21 22 23 24 25 26 27 28 29 30 31 32 33 34 35 36 37 38 39 40 41 42 43 44 45 46 47 48 49 50
000
ASUS45 KSLC 290310
RWRUT

UTAH REGIONAL WEATHER ROUNDUP
NATIONAL WEATHER SERVICE SALT LAKE CITY UT
900 PM MDT WED JUN 28 2017

UTZ001>011-023>025-290400-

NORTHERN UTAH

CITY           SKY/WX    TMP DP  RH WIND       PRES   REMARKS
BRIGHAM CITY   PTCLDY    74  43  33 CALM      29.87R
HILL AFB       PTCLDY    76  40  27 N15       29.89R
LOGAN          MOCLDY    68  54  60 NW6       29.89R
OGDEN          PTCLDY    77  40  26 N13       29.86R
SALT LAKE CITY PTCLDY    81  45  28 N14       29.83R
TOOELE VALLEY  CLEAR     75  46  35 N18       29.86R
WENDOVER       CLEAR     82  26  13 W18       29.87R
HEBER CITY     CLEAR     70  34  26 CALM      29.92R
WEST JORDAN    CLEAR     78  49  36 N6        29.86S

$$

UTZ011>015-024>027-290400-

CENTRAL/NORTHEAST UTAH

CITY           SKY/WX    TMP DP  RH WIND       PRES   REMARKS
PROVO AIRPORT  CLEAR     80  36  20 NW15      29.85R
MOAB/CANYONLAN PTCLDY    91  13   5 NW17      29.73R
DELTA          CLEAR     81  21  11 N13       29.85R
PRICE          PTCLDY    79  22  12 NW10G20   29.90R
ROOSEVELT      CLEAR     81  28  15 NW9       29.86R
VERNAL         CLEAR     79  25  13 W8        29.84R

$$

UTZ013>016-019>022-027-290400-

SOUTHERN UTAH

CITY           SKY/WX    TMP DP  RH WIND       PRES   REMARKS
BRYCE CANYON   CLOUDY    68  13  12 SW8       30.11S
CEDAR CITY     CLEAR     79  18  10 SW14G21   29.95R
MILFORD        CLEAR     86  16   7 SW20G31   29.86R
ST GEORGE      CLEAR     96  21   6 SW6       29.74R
HANKSVILLE     CLEAR     90  14   6 W16       29.77R
BLANDING       CLEAR     82   9   6 W9G18     30.00R

$$

REGIONAL REPORTS     COLORADO/ARIZONA

CITY           SKY/WX    TMP DP  RH WIND       PRES   REMARKS
CRAIG, CO      CLOUDY    73  26  17 N7G17     29.99R
GRAND JUNCTION CLEAR     89  13   6 W12G24    29.77S
RIFLE, CO      CLEAR     81  15   8 W5        29.84R
MONTROSE, CO   CLEAR     79  14   8 S6        29.89R
CORTEZ, CO     CLEAR     69  20  15 S6        29.94S
COLORADO CITY    N/A     86  19   8 SW10G18   29.95R
PAGE, AZ       CLEAR     92   8   4 W14G21    29.83R
GRAND CANYON   CLEAR     74  10   8 SW6       30.11R
KINGMAN, AZ    CLEAR     87  19   8 S8        29.86R
FLAGSTAFF, AZ  CLEAR     73  16  11 SW10      30.15R

$$

REGIONAL REPORTS    NEVADA/IDAHO/WYOMING

CITY           SKY/WX    TMP DP  RH WIND       PRES   REMARKS
LAS VEGAS, NV  CLEAR    100  12   4 SW13      29.68S HX  92
ELY, NY        CLEAR     75  22  13 NW10      30.02R
ELKO, NV       CLEAR     77  28  16 W8        29.96S
POCATELLO, ID  PTCLDY    67  45  45 SW12      29.89R
BURLEY, ID     CLEAR     70  34  26 VRB7      29.88R
FORT BRIDGER,    N/A     63  34  33 NW9       30.08R
EVANSTON, WY   CLEAR     63  39  41 N10       30.05R
ROCK SPRINGS,  CLOUDY    59  35  40 N16       30.05R
KEMMERER, WY   RAIN      59  37  44 NW12      30.07S

$$



USA.gov is the U.S. government's official web portal to all federal, state and local government web resources and services.